Location: Gro�bocka
(50.8204°N, 11.9702°E)
Time: 01:50:23
(UTC+00:00)

GEOS 3 Rocket - Pass Details

Date: 29 October 2020
Orbit: 770 x 850 km, 115.0° (Epoch: 23 November)

Event Time Altitude Azimuth Distance (km) Brightness Sun altitude
Exits shadow 16:36:12 - 94° (E) 2,633 5.7 -7.6°
Reaches altitude 10° 16:36:42 10° 92° (E) 2,456 5.5 -7.7°
Maximum altitude 16:41:28 34° 29° (NNE) 1,358 4.5 -8.4°
Drops below altitude 10° 16:46:18 10° 326° (NW) 2,485 6.5 -9.1°
Sets 16:48:49 0° 317° (NW) 3,424 7.3 -9.5°
